This is the latest recevied weather packets stored in our database for station/object GW1546. If no packets are shown the sender has not sent any weather packets the latest 10 day(s).
| Time | Temp. | Humidity | Pressure | Rain* | Wind** | Luminosity | Snow |
|---|---|---|---|---|---|---|---|
| 1777297734 | 15.56° C | 73% | 992.5 hPa | 0 mm | - | - | - |
| 1777297359 | 15.56° C | 74% | 992.5 hPa | 0 mm | - | - | - |
| 1777296286 | 14.44° C | 77% | 992.5 hPa | 0 mm | - | - | - |
| 1777295563 | 13.89° C | 78% | 992.5 hPa | 0 mm | - | - | - |
| 1777291238 | 8.89° C | 99% | 992.8 hPa | 0 mm | - | - | - |
| 1777289802 | 8.89° C | 99% | 993.2 hPa | 0 mm | - | - | - |
| 1777285834 | 8.89° C | 99% | 992.2 hPa | 0 mm | - | - | - |
| 1777283679 | 9.44° C | 99% | 991.8 hPa | 0 mm | - | - | - |
| 1777278630 | 9.44° C | 99% | 990.5 hPa | 0 mm | - | - | - |
| 1777276462 | 9.44° C | 99% | 990.1 hPa | 0 mm | - | - | - |
| 1777274670 | 9.44° C | 99% | 990.1 hPa | 0 mm | - | - | - |
| 1777274309 | 9.44° C | 99% | 990.1 hPa | 0 mm | - | - | - |
| 1777273609 | 9.44° C | 99% | 990.5 hPa | 0 mm | - | - | - |
| 1777271065 | 9.44° C | 99% | 990.5 hPa | 0 mm | - | - | - |
| 1777270356 | 9.44° C | 99% | 990.8 hPa | 0 mm | - | - | - |
| 1777269979 | 10° C | 99% | 990.5 hPa | 0 mm | - | - | - |
| 1777269623 | 10° C | 99% | 990.5 hPa | 0 mm | - | - | - |
| 1777267126 | 10° C | 99% | 991.1 hPa | 0 mm | - | - | - |
| 1777266733 | 10° C | 99% | 991.1 hPa | 0 mm | - | - | - |
| 1777263508 | 10.56° C | 99% | 990.8 hPa | 0 mm | - | - | - |
| 1777254872 | 12.78° C | 94% | 990.1 hPa | 0 mm | - | - | - |
| 1777254135 | 13.33° C | 93% | 990.1 hPa | 0 mm | - | - | - |
| 1777253771 | 13.33° C | 93% | 989.8 hPa | 0 mm | - | - | - |
| 1777247674 | 16.67° C | 78% | 988.4 hPa | 0 mm | - | - | - |
| 1777245158 | 18.33° C | 73% | 987.8 hPa | 0 mm | - | - | - |
* Rain since midnight (hover to see other rain measurements)
** Current wind speed in m/s (hover to see current wind gust speed)